Weather History for Rockwall, TX

Change the Weather History Date:

Tuesday, October 30, 2012

  Actual Average (KDFW) Record (KDFW)
Temperature  
Mean Temperature 59 °F 63 °F  
Max Temperature 75 °F 74 °F 90 °F (1951)
Min Temperature 43 °F 53 °F 24 °F (1917)
Degree Days  
Heating Degree Days 6 4  
Month to date heating degree days 62  
Since 1 July heating degree days 68  
Cooling Degree Days 0 3  
Month to date cooling degree days 144  
Year to date cooling degree days 2721  
Growing Degree Days 9 (Base 50)    
Moisture  
Dew Point 40 °F    
Average Humidity 51    
Maximum Humidity 78    
Minimum Humidity 30    
Precipitation  
Precipitation 0.00 in 0.14 in 2.43 in (1973)
Month to date precipitation 4.08  
Year to date precipitation 30.74  
Snow  
Snow - 0.00 in 0.00 in ()
Month to date snowfall 0.0  
Since 1 July snowfall 0.0  
Since 1 September snowfall 0.0  
Snow Depth -    
Sea Level Pressure  
Sea Level Pressure 30.03 in    
Wind  
Wind Speed 6 mph ()    
Max Wind Speed 13 mph    
Max Gust Speed 17 mph    
Visibility 10.0 miles    
Events      
T = Trace of Precipitation, MM = Missing Value Source: Averaged Metar Reports

Daily Weather History Graph

Daily Weather History Graph

Search for Another Location

Airport:

Trip Planner

Search our weather history database for the weather conditions in past years. The results will help you decide how hot, cold, wet, or windy it might be!

Date:

Astronomy

Oct. 30, 2012 Rise Set
Actual Time 7:42 AM CDT 6:35 PM CDT
Civil Twilight 7:16 AM CDT 7:01 PM CDT
Nautical Twilight 6:47 AM CDT 7:30 PM CDT
Astronomical Twilight 6:18 AM CDT 7:59 PM CDT
Moon 7:10 PM CDT (10/30) 8:26 AM CDT (10/30)
Length of Visible Light 11h 44m
Length of Day
10h 53m
Full, 99% of the Moon is Illuminated
Oct 30
Full
Nov 6
Last Quarter
Nov 13
New
Nov 20
First Quarter
Nov 28
Full

Hourly Weather History & Observations

Time (CDT) Temp. Windchill Dew Point Humidity Pressure Visibility Wind Dir Wind Speed Gust Speed Precip Events Conditions
12:15 AM 51.4 °F - 33.8 °F 51% 30.12 in 10.0 mi SE 5.8 mph - N/A   Clear
12:35 AM 51.3 °F - 33.8 °F 51% 30.12 in 10.0 mi SSE 6.9 mph - N/A   Clear
12:55 AM 50.9 °F - 33.8 °F 52% 30.12 in 10.0 mi SSE 4.6 mph - N/A   Clear
1:15 AM 48.6 °F - 34.2 °F 58% 30.12 in 10.0 mi South 5.8 mph - N/A   Clear
1:35 AM 48.6 °F - 34.3 °F 58% 30.12 in 10.0 mi South 6.9 mph - N/A   Clear
1:55 AM 48.4 °F - 34.2 °F 58% 30.11 in 10.0 mi South 8.1 mph - N/A   Clear
2:15 AM 48.9 °F - 33.8 °F 56% 30.11 in 10.0 mi South 6.9 mph - N/A   Clear
2:35 AM 48.2 °F - 34.2 °F 58% 30.10 in 10.0 mi South 6.9 mph - N/A   Clear
3:15 AM 48.2 °F - 35.2 °F 61% 30.10 in 10.0 mi South 5.8 mph - N/A   Clear
3:35 AM 47.5 °F - 35.2 °F 63% 30.09 in 10.0 mi South 5.8 mph - N/A   Clear
3:55 AM 46.4 °F 43.5 °F 35.6 °F 66% 30.09 in 10.0 mi South 5.8 mph - N/A   Clear
4:15 AM 46.0 °F 43.1 °F 36.0 °F 68% 30.09 in 10.0 mi South 5.8 mph - N/A   Clear
4:55 AM 46.6 °F - 36.7 °F 68% 30.09 in 10.0 mi South 4.6 mph - N/A   Clear
5:15 AM 45.9 °F 44.6 °F 36.0 °F 68% 30.09 in 10.0 mi SSE 3.5 mph - N/A   Clear
5:35 AM 45.5 °F - 35.8 °F 69% 30.09 in 10.0 mi Calm Calm - N/A   Clear
5:55 AM 45.1 °F 42.8 °F 35.8 °F 70% 30.09 in 10.0 mi South 4.6 mph - N/A   Clear
6:15 AM 44.6 °F 42.2 °F 36.0 °F 72% 30.09 in 10.0 mi South 4.6 mph - N/A   Clear
6:35 AM 44.2 °F 42.7 °F 36.5 °F 74% 30.10 in 10.0 mi South 3.5 mph - N/A   Clear
6:55 AM 44.2 °F 41.8 °F 36.5 °F 74% 30.10 in 10.0 mi South 4.6 mph - N/A   Clear
7:15 AM 43.0 °F 41.3 °F 36.7 °F 78% 30.09 in 10.0 mi South 3.5 mph - N/A   Clear
7:35 AM 43.7 °F 41.1 °F 37.4 °F 78% 30.08 in 10.0 mi South 4.6 mph - N/A   Clear
8:15 AM 44.6 °F 40.7 °F 36.9 °F 74% 30.08 in 10.0 mi South 6.9 mph - N/A   Clear
8:35 AM 46.2 °F 43.3 °F 37.2 °F 71% 30.08 in 10.0 mi South 5.8 mph - N/A   Clear
8:55 AM 48.6 °F - 38.1 °F 67% 30.08 in 10.0 mi South 5.8 mph - N/A   Clear
9:15 AM 50.7 °F - 37.9 °F 62% 30.09 in 10.0 mi South 5.8 mph - N/A   Clear
9:35 AM 52.7 °F - 38.3 °F 58% 30.09 in 10.0 mi SSW 6.9 mph - N/A   Clear
9:55 AM 55.0 °F - 38.7 °F 54% 30.09 in 10.0 mi SSW 8.1 mph - N/A   Clear
10:15 AM 56.5 °F - 38.5 °F 51% 30.08 in 10.0 mi SSW 10.4 mph - N/A   Clear
10:35 AM 60.1 °F - 39.4 °F 46% 30.08 in 10.0 mi SSW 10.4 mph - N/A   Clear
10:55 AM 61.9 °F - 39.6 °F 44% 30.08 in 10.0 mi SSW 12.7 mph - N/A   Clear
11:15 AM 63.3 °F - 38.8 °F 40% 30.07 in 10.0 mi SW 12.7 mph 17.3 mph N/A   Clear
11:35 AM 63.9 °F - 39.4 °F 41% 30.07 in 10.0 mi SW 10.4 mph - N/A   Clear
11:55 AM 65.3 °F - 40.3 °F 40% 30.07 in 10.0 mi SW 11.5 mph - N/A   Clear
12:15 PM 66.2 °F - 40.6 °F 39% 30.07 in 10.0 mi SW 10.4 mph - N/A   Clear
12:35 PM 66.9 °F - 41.0 °F 39% 30.06 in 10.0 mi SW 8.1 mph - N/A   Clear
12:55 PM 68.4 °F - 41.2 °F 37% 30.05 in 10.0 mi SSW 6.9 mph - N/A   Clear
1:15 PM 69.6 °F - 41.9 °F 37% 30.04 in 10.0 mi SSW 8.1 mph 16.1 mph N/A   Clear
1:35 PM 70.0 °F - 41.5 °F 36% 30.03 in 10.0 mi WSW 5.8 mph - N/A   Clear
1:55 PM 71.6 °F - 41.5 °F 34% 30.02 in 10.0 mi SW 5.8 mph - N/A   Clear
2:15 PM 73.0 °F - 41.5 °F 32% 30.00 in 10.0 mi SSW 9.2 mph - N/A   Clear
2:35 PM 73.4 °F - 40.8 °F 31% 29.99 in 10.0 mi WSW 9.2 mph - N/A   Clear
2:55 PM 73.9 °F - 41.4 °F 31% 29.98 in 10.0 mi SW 9.2 mph - N/A   Clear
3:15 PM 74.3 °F - 41.2 °F 30% 29.97 in 10.0 mi WSW 9.2 mph - N/A   Clear
3:35 PM 75.2 °F - 42.1 °F 30% 29.96 in 10.0 mi SSW 9.2 mph - N/A   Clear
3:55 PM 75.4 °F - 42.3 °F 30% 29.95 in 10.0 mi SSW 9.2 mph - N/A   Clear
4:15 PM 74.5 °F - 41.5 °F 31% 29.95 in 10.0 mi SW 5.8 mph - N/A   Clear
4:55 PM 75.2 °F - 42.6 °F 31% 29.95 in 10.0 mi SW 4.6 mph - N/A   Clear
5:15 PM 75.2 °F - 41.7 °F 30% 29.94 in 10.0 mi WSW 8.1 mph - N/A   Clear
5:55 PM 73.9 °F - 42.4 °F 32% 29.94 in 10.0 mi SW 5.8 mph - N/A   Clear
6:15 PM 72.7 °F - 43.2 °F 35% 29.95 in 10.0 mi Calm Calm - N/A   Clear
6:35 PM 71.1 °F - 43.2 °F 37% 29.95 in 10.0 mi SW 3.5 mph - N/A   Clear
6:55 PM 69.1 °F - 43.7 °F 40% 29.95 in 10.0 mi SSW 4.6 mph - N/A   Clear
7:15 PM 67.1 °F - 44.4 °F 44% 29.95 in 10.0 mi SSW 5.8 mph - N/A   Clear
7:35 PM 65.1 °F - 44.6 °F 47% 29.95 in 10.0 mi SSW 5.8 mph - N/A   Clear
7:55 PM 64.0 °F - 44.4 °F 49% 29.95 in 10.0 mi South 5.8 mph - N/A   Clear
8:15 PM 62.6 °F - 44.1 °F 51% 29.95 in 10.0 mi South 6.9 mph - N/A   Clear
8:35 PM 62.6 °F - 43.9 °F 50% 29.95 in 10.0 mi South 6.9 mph - N/A   Clear
8:55 PM 61.7 °F - 44.1 °F 52% 29.95 in 10.0 mi South 9.2 mph - N/A   Clear
9:15 PM 61.9 °F - 43.9 °F 52% 29.95 in 10.0 mi South 9.2 mph - N/A   Clear
9:35 PM 60.8 °F - 43.9 °F 54% 29.95 in 10.0 mi South 8.1 mph - N/A   Clear
9:55 PM 61.0 °F - 43.7 °F 53% 29.95 in 10.0 mi South 11.5 mph - N/A   Clear
10:15 PM 60.6 °F - 44.1 °F 54% 29.95 in 10.0 mi South 11.5 mph - N/A   Clear
10:35 PM 59.9 °F - 44.6 °F 57% 29.95 in 10.0 mi SSW 9.2 mph - N/A   Clear
10:55 PM 60.8 °F - 44.8 °F 56% 29.95 in 10.0 mi SSW 9.2 mph - N/A   Clear
11:15 PM 60.8 °F - 44.8 °F 56% 29.95 in 10.0 mi SSW 10.4 mph 16.1 mph N/A   Clear
11:35 PM 60.6 °F - 44.8 °F 56% 29.95 in 10.0 mi SSW 10.4 mph - N/A   Clear
11:55 PM 60.3 °F - 45.0 °F 57% 29.94 in 10.0 mi SSW 9.2 mph - N/A   Clear